Regional Weather Roundup
Issued by NWS Glasgow, MT

Home | Current Version | Previous Version | Text Only | Print | Product List | Glossary On
Versions: 1 2 3 4 5 6 7 8 9 10 11 12 13 14 15 16 17 18 19 20 21 22 23 24 25 26 27 28 29 30 31 32 33 34 35 36 37 38 39 40 41 42 43 44 45 46 47 48 49 50
000
ASUS45 KGGW 231615
RWRGGW
HOURLY REGIONAL WEATHER ROUNDUP FOR NORTHEAST MONTANA
NATIONAL WEATHER SERVICE GLASGOW MONTANA
1000 AM MDT SUN JUL 23 2017

NOTE: "FAIR" INDICATES FEW OR NO CLOUDS BELOW 12,000 FEET WITH NO
SIGNIFICANT WEATHER AND/OR OBSTRUCTIONS TO VISISBILITY.

NORTHEAST MONTANA


CITY           SKY/WX    TMP DP  RH WIND       PRES   REMARKS
GLASGOW        SUNNY     77  46  33 SE12      30.00F
PLENTYWOOD       N/A     77  49  37 S5          N/A
WOLF POINT     SUNNY     82  48  30 S5        30.01F
JORDAN         NOT AVBL
SIDNEY         SUNNY     76  53  44 S5        30.04F
GLENDIVE       SUNNY     76  48  37 CALM      30.07S
MALTA            N/A     81  54  39 NE3         N/A

FORT PECK REPORTS


CITY           SKY/WX    TMP DP  RH WIND       PRES   REMARKS
FORT PECK        N/A     77  51  40 S8          N/A
THE PINES        N/A     81  42  25 NE1         N/A

SOUTHEAST MONTANA


CITY           SKY/WX    TMP DP  RH WIND       PRES   REMARKS
BILLINGS       SUNNY     71  40  32 SW9       30.08F
MILES CITY     SUNNY     82  43  25 SE10      30.03F
BAKER          SUNNY     83  42  23 SE7       30.09S
LIVINGSTON     SUNNY     74  40  29 NW3       30.13F

CENTRAL MONTANA


CITY           SKY/WX    TMP DP  RH WIND       PRES   REMARKS
HAVRE          SUNNY     82  44  26 W10       29.98F
LEWISTOWN      SUNNY     79  38  22 VRB5      30.08F
GREAT FALLS    SUNNY     81  40  23 S5        30.04F
CUT BANK       SUNNY     80  43  26 W9        30.03F
HELENA         SUNNY     73  46  38 VRB3      30.08F
BUTTE          SUNNY     69  42  37 CALM      30.19F
BOZEMAN        SUNNY     73  46  38 N3        30.14F

WESTERN MONTANA


CITY           SKY/WX    TMP DP  RH WIND       PRES   REMARKS
MISSOULA       SUNNY     69  46  43 SE5       30.08F
KALISPELL      NOT AVBL

NORTH DAKOTA


CITY           SKY/WX    TMP DP  RH WIND       PRES   REMARKS
WILLISTON      SUNNY     78  55  44 VRB5      30.05F
DICKINSON      SUNNY     77  52  41 S6        30.07F
MINOT          SUNNY     73  53  49 CALM      30.06F
BISMARCK       SUNNY     73  57  57 VRB5      30.09S

SOUTHERN SASKATCHEWAN


CITY           SKY/WX    TMP DP  RH WIND       PRES   REMARKS
REGINA         PTSUNNY   77  57  50 S10       29.99F
ESTEVAN        SUNNY     73  59  60 S9        30.04F
SWIFT CURRENT  MOSUNNY   77  54  44 S13       29.94F




USA.gov is the U.S. government's official web portal to all federal, state and local government web resources and services.